Regional Weather Roundup
Issued by NWS

Home | Current Version | Previous Version | Graphics & Text | Print | Product List | Glossary On
Versions: 1 2 3 4 5 6 7 8 9 10 11 12 13 14 15 16 17 18 19 20 21 22 23 24 25 26 27 28 29 30 31 32 33 34 35 36 37 38 39 40 41 42 43 44 45 46 47 48 49 50
000
ASUS43 KMPX 191601
RWRMN
WEATHER ROUNDUP FOR MINNESOTA
NATIONAL WEATHER SERVICE TWIN CITIES/CHANHASSEN MN
1100 AM CDT TUE SEP 19 2017


NOTE: "FAIR" INDICATES FEW OR NO CLOUDS BELOW 12,000 FEET WITH NO
SIGNIFICANT WEATHER AND/OR OBSTRUCTIONS TO VISIBILITY. N/A MEANS
CURRENT SKY AND/OR WEATHER CONDITIONS ARE NOT AVAILABLE.

MNZ060>063-068>070-191700-
   Twin Cities Metro

CITY           SKY/WX    TMP DP  RH WIND       PRES   REMARKS
TWIN CITIES    MOSUNNY   70  63  78 SE12      29.89F
ST PAUL        MOSUNNY   70  63  78 S10       29.90F
CRYSTAL        PTSUNNY   68  59  73 SE8       29.88S
BLAINE         PTSUNNY   72  64  78 E9        29.89F
LAKEVILLE      MOSUNNY   70  63  78 SE7       29.90S
EDEN PRAIRIE   MOSUNNY   70  63  78 SE12      29.88S
SOUTH ST PAUL  SUNNY     69  62  79 SE8       29.90S
LAKE ELMO      FAIR      68  63  83 SE5       29.92S
$$
MNZ001>005-007-008-013>017-022>024-027-028-191700-
   Northwest Minnesota

CITY           SKY/WX    TMP DP  RH WIND       PRES   REMARKS
BEMIDJI        CLOUDY    60  57  90 SE15      29.84S
HALLOCK        CLOUDY    61  57  88 SE15      29.73F
ROSEAU         CLOUDY    57  54  88 E12       29.79F
WARROAD        CLOUDY    57  54  88 SE10      29.82F
CROOKSTON      PTSUNNY   63  61  94 S17       29.74F
FOSSTON        CLOUDY    64  57  77 SE13G21   29.78F
DETROIT LAKES  CLOUDY    63  59  88 SE18      29.78F
MOORHEAD       CLOUDY    68  61  77 SE14G21   29.72F
PARK RAPIDS    CLOUDY    63  59  87 SE14      29.83F
MAHNOMEN       PTSUNNY   64  58  82 SE13G23   29.76F
$$
MNZ006-009>011-018-025>026-191700-
   North Central Minnesota

CITY           SKY/WX    TMP DP  RH WIND       PRES   REMARKS
BAUDETTE       CLOUDY    57  56  96 SE9G20    29.85S
FLAG ISLAND    CLOUDY    55  54  94 SE6       29.84S
INTL FALLS     CLOUDY    59  55  87 SE12      29.89F
WASKISH        CLOUDY    59  59 100 SE10      29.85S
BIG FORK       CLOUDY    61  57  88 SE6       29.88F
LONGVILLE      CLOUDY    59  57  94 SE7       29.87S FOG
GRAND RAPIDS   CLOUDY    59  57  93 S9        29.91F
CRANE LAKE     CLOUDY    59  55  88 S3        29.95S
ORR            CLOUDY    59  55  88 SE8       29.90F
COOK           CLOUDY    59  55  88 SE7       29.93F
WALKER         CLOUDY    58  57  96 SE7       29.85S FOG
$$
MNZ012-019>021-037-191700-
   Northeast Minnesota

CITY           SKY/WX    TMP DP  RH WIND       PRES   REMARKS
DULUTH         CLOUDY    59  58  96 SE8       29.94F
ELY            CLOUDY    61  55  82 SE8       29.96S
HIBBING        CLOUDY    59  57  93 SE8       29.92F
EVELETH        CLOUDY    60  59  95 SE7       29.95F
DULUTH HARBOR  CLOUDY    63  57  82 NE9       29.95F
SILVER BAY     CLOUDY    61  57  88 E6        29.96F
$$
MNZ029>031-032-039>041-046>048-054>057-064-191700-
   West Central Minnesota

CITY           SKY/WX    TMP DP  RH WIND       PRES   REMARKS
FERGUS FALLS   SUNNY     70  64  83 SE18G25   29.74F
WHEATON        CLOUDY    70  63  78 SE18G24   29.73F
ALEXANDRIA     CLOUDY    63  62  97 SE14      29.82F
ELBOW LAKE     CLOUDY    67  63  89 E17       29.76F
WADENA         CLOUDY    61  61 100 SE14      29.82F FOG
GLENWOOD       CLOUDY    63  63 100 SE15G22   29.82F FOG
APPLETON       CLOUDY    70  63  78 SE16      29.76F
BENSON         CLOUDY    66  63  88 S15G23    29.80F
ORTONVILLE     CLOUDY    66  64  94 NE15G21   29.74F
MADISON        CLOUDY    72  70  94 SE13      29.76F
WILLMAR        CLOUDY    64  64 100 SE14G21   29.83F FOG
$$
MNZ033>034-036-042>043-049>051-058-059-191700-
   Central Minnesota

CITY           SKY/WX    TMP DP  RH WIND       PRES   REMARKS
ST CLOUD       CLOUDY    65  63  93 SE8       29.86F
PAYNESVILLE    CLOUDY    63  63 100 SE8       29.85S FOG
AITKIN         CLOUDY    61  57  88 SE8       29.88F
PINE RIVER     CLOUDY    61  55  82 SE9       29.89F
BRAINERD       CLOUDY    61  59  93 SE13G18   29.87F
STAPLES        CLOUDY    61  61 100 SE6       29.85S
LONG PRAIRIE   CLOUDY    61  61 100 E13       29.84F FOG
LITTLE FALLS   CLOUDY    61  59  94 SE10      29.86F FOG
LITCHFIELD     CLOUDY    64  64 100 SE10      29.86S FOG
BUFFALO        PTSUNNY   68  61  78 SE8       29.88F
MAPLE LAKE     CLOUDY    66  64  90 SE6       29.88F
HUTCHINSON     CLOUDY    66  66 100 SE9       29.87F FOG
$$
MNZ037-044-045-052-053-191700-
   East Central Minnesota

CITY           SKY/WX    TMP DP  RH WIND       PRES   REMARKS
PRINCETON      MOSUNNY   68  63  83 E6        29.89S
MORA           CLOUDY    63  59  88 E7        29.92S
RUSH CITY      MOSUNNY   67  60  78 SE8       29.91F
MOOSE LAKE     CLOUDY    63  59  88 CALM      29.90F
HINCKLEY       CLOUDY    66  61  82 E12       29.91F
CLOQUET        CLOUDY    61  55  82 SE7       29.94S
MCGREGOR       CLOUDY    61  59  94 SE9       29.90F
$$
MNZ071>073-080-081-089-090-097-098-191700-
   Southwest Minnesota

CITY           SKY/WX    TMP DP  RH WIND       PRES   REMARKS
MONTEVIDEO     CLOUDY    66  64  94 S14       29.79S
GRANITE FALLS  CLOUDY    69  65  85 SE14G21   29.81F
CANBY          CLOUDY    71  65  80 E21       29.76F
MARSHALL       CLOUDY    70  64  81 SE20G25   29.78F
REDWOOD FALLS  CLOUDY    68  64  87 SE16G23   29.81F FOG
OLIVIA         CLOUDY    64  63  94 SE13G20   29.82F FOG
PIPESTONE      CLOUDY    66  64  94 S9        29.78F FOG
WINDOM         MOSUNNY   70  64  83 SE15      29.83F
WORTHINGTON    CLOUDY    68  65  90 SE16G22   29.82F
JACKSON        CLOUDY    68  63  83 SE17      29.85F FOG
TRACY          CLOUDY    70  66  88 SE12G22   29.81F
SLAYTON        CLOUDY    66  64  91 SE14      29.82S FOG
$$
MNZ065>067-074>077-082>085-091>093-191700-
   South Central Minnesota

CITY           SKY/WX    TMP DP  RH WIND       PRES   REMARKS
MANKATO        CLOUDY    66  63  90 SE15      29.88S
NEW ULM        CLOUDY    66  64  94 SE9       29.85F
ST JAMES       CLOUDY    68  64  88 SE14      29.86F
FAIRMONT       CLOUDY    67  64  90 SE15      29.87S
GLENCOE        CLOUDY    67  66  94 SE10      29.86F
FARIBAULT      PTSUNNY   70  64  83 SE10      29.90F
OWATONNA       MOSUNNY   72  64  78 SE14      29.90F
WASECA         PTSUNNY   70  63  78 SE13G18   29.90F
ALBERT LEA     CLOUDY    66  66 100 SE12G17   29.91F FOG
$$
MNZ078>079-086>088-094>096-191700-
   Southeast Minnesota

CITY           SKY/WX    TMP DP  RH WIND       PRES   REMARKS
ROCHESTER      SUNNY     69  63  81 SE9       29.94F
RED WING       SUNNY     70  59  68 E10       29.91F
STANTON        MOSUNNY   71  64  77 S7        29.89F
DODGE CENTER   SUNNY     72  63  73 SE9       29.92F
WINONA         MOSUNNY   70  61  73 E9        29.95F
AUSTIN         MOSUNNY   70  63  78 S8        29.91F
PRESTON        MOSUNNY   64  59  85 S7        29.95F
$$
ABBREVIATIONS USED IN REMARKS
   TC - TEMPERATURES IN CELSIUS
  WCI - WIND CHILL INDEX
   HX - HEAT INDEX
  VSB - VISIBILITY
$$




USA.gov is the U.S. government's official web portal to all federal, state and local government web resources and services.